Time,TemperatureF,DewpointF,PressureIn,WindDirection,WindDirectionDegrees,WindSpeedMPH,WindSpeedGustMPH,Humidity,HourlyPrecipIn,Conditions,Clouds,dailyrainin,SoftwareType,DateUTC
2013-11-27 00:00:00,46.0,38.0,-100.00,NW,312,12.0,-999.0,74,0.00,,,-99.99,,2013-11-27 06:00:00,
2013-11-27 00:42:00,46.0,38.0,-100.00,NW,312,12.0,-999.0,74,0.00,,,-99.99,,2013-11-27 06:42:00,
2013-11-27 00:52:00,46.0,38.0,-100.00,NW,312,12.0,-999.0,74,0.00,,,-99.99,,2013-11-27 06:52:00,
2013-11-27 01:00:00,45.0,37.0,-100.00,NW,319,14.0,-999.0,73,0.00,,,-99.99,,2013-11-27 07:00:00,
2013-11-27 01:42:00,45.0,37.0,-100.00,NW,319,14.0,-999.0,73,0.00,,,-99.99,,2013-11-27 07:42:00,
2013-11-27 01:52:00,45.0,37.0,-100.00,NW,319,14.0,-999.0,73,0.00,,,-99.99,,2013-11-27 07:52:00,
2013-11-27 02:00:00,45.0,36.0,-100.00,NW,314,15.0,-999.0,72,0.00,,,-99.99,,2013-11-27 08:00:00,
2013-11-27 02:43:00,45.0,36.0,-100.00,NW,314,15.0,-999.0,72,0.00,,,-99.99,,2013-11-27 08:43:00,
2013-11-27 02:52:00,45.0,36.0,-100.00,NW,314,15.0,-999.0,72,0.00,,,-99.99,,2013-11-27 08:52:00,
2013-11-27 03:00:00,44.0,36.0,-100.00,WNW,302,13.0,-999.0,73,0.00,,,-99.99,,2013-11-27 09:00:00,
2013-11-27 03:22:00,44.0,36.0,-100.00,WNW,302,13.0,-999.0,73,0.00,,,-99.99,,2013-11-27 09:22:00,
2013-11-27 03:33:00,44.0,36.0,-100.00,WNW,302,13.0,-999.0,73,0.00,,,-99.99,,2013-11-27 09:33:00,
2013-11-27 03:43:00,44.0,36.0,-100.00,WNW,302,13.0,-999.0,73,0.00,,,-99.99,,2013-11-27 09:43:00,
2013-11-27 03:54:00,44.0,36.0,-100.00,WNW,302,13.0,-999.0,73,0.00,,,-99.99,,2013-11-27 09:54:00,
2013-11-27 04:00:00,42.0,35.0,-100.00,NW,307,13.0,-999.0,75,0.00,,,-99.99,,2013-11-27 10:00:00,
2013-11-27 04:42:00,42.0,35.0,-100.00,NW,307,13.0,-999.0,75,0.00,,,-99.99,,2013-11-27 10:42:00,
2013-11-27 04:53:00,42.0,35.0,-100.00,NW,307,13.0,-999.0,75,0.00,,,-99.99,,2013-11-27 10:53:00,
2013-11-27 05:00:00,42.0,35.0,-100.00,NW,312,14.0,-999.0,74,0.00,,,-99.99,,2013-11-27 11:00:00,
2013-11-27 05:42:00,42.0,35.0,-100.00,NW,312,14.0,-999.0,74,0.00,,,-99.99,,2013-11-27 11:42:00,
2013-11-27 05:53:00,42.0,35.0,-100.00,NW,312,14.0,-999.0,74,0.00,,,-99.99,,2013-11-27 11:53:00,
2013-11-27 06:00:00,41.0,34.0,-100.00,NW,322,16.0,-999.0,76,0.00,,,-99.99,,2013-11-27 12:00:00,
2013-11-27 06:42:00,41.0,34.0,-100.00,NW,322,16.0,-999.0,76,0.00,,,-99.99,,2013-11-27 12:42:00,
2013-11-27 06:52:00,41.0,34.0,-100.00,NW,322,16.0,-999.0,76,0.00,,,-99.99,,2013-11-27 12:52:00,
2013-11-27 07:00:00,40.0,34.0,-100.00,NNW,328,17.0,-999.0,78,0.00,,,-99.99,,2013-11-27 13:00:00,
2013-11-27 07:42:00,40.0,34.0,-100.00,NNW,328,17.0,-999.0,78,0.00,,,-99.99,,2013-11-27 13:42:00,
2013-11-27 07:52:00,40.0,34.0,-100.00,NNW,328,17.0,-999.0,78,0.00,,,-99.99,,2013-11-27 13:52:00,
2013-11-27 08:00:00,40.0,34.0,-100.00,NNW,336,17.0,-999.0,79,0.00,,,-99.99,,2013-11-27 14:00:00,
2013-11-27 08:42:00,40.0,34.0,-100.00,NNW,336,17.0,-999.0,79,0.00,,,-99.99,,2013-11-27 14:42:00,
2013-11-27 08:53:00,40.0,34.0,-100.00,NNW,336,17.0,-999.0,79,0.00,,,-99.99,,2013-11-27 14:53:00,
2013-11-27 09:00:00,41.0,32.0,-100.00,North,350,20.0,-999.0,71,0.00,,,-99.99,,2013-11-27 15:00:00,
2013-11-27 09:44:00,41.0,32.0,-100.00,North,350,20.0,-999.0,71,0.00,,,-99.99,,2013-11-27 15:44:00,
2013-11-27 09:53:00,41.0,32.0,-100.00,North,350,20.0,-999.0,71,0.00,,,-99.99,,2013-11-27 15:53:00,
2013-11-27 10:00:00,42.0,32.0,-100.00,North,1,18.0,-999.0,68,0.00,,,-99.99,,2013-11-27 16:00:00,
2013-11-27 10:43:00,42.0,32.0,-100.00,North,1,18.0,-999.0,68,0.00,,,-99.99,,2013-11-27 16:43:00,
2013-11-27 10:53:00,42.0,32.0,-100.00,North,1,18.0,-999.0,68,0.00,,,-99.99,,2013-11-27 16:53:00,
2013-11-27 11:00:00,43.0,30.0,-100.00,North,6,16.0,-999.0,61,0.00,,,-99.99,,2013-11-27 17:00:00,
2013-11-27 11:22:00,43.0,30.0,-100.00,North,6,16.0,-999.0,61,0.00,,,-99.99,,2013-11-27 17:22:00,
2013-11-27 11:33:00,43.0,30.0,-100.00,North,6,16.0,-999.0,61,0.00,,,-99.99,,2013-11-27 17:33:00,
2013-11-27 11:42:00,43.0,30.0,-100.00,North,6,16.0,-999.0,61,0.00,,,-99.99,,2013-11-27 17:42:00,
2013-11-27 11:52:00,43.0,30.0,-100.00,North,6,16.0,-999.0,61,0.00,,,-99.99,,2013-11-27 17:52:00,
2013-11-27 12:00:00,45.0,29.0,-100.00,North,358,11.0,-999.0,53,0.00,,,-99.99,,2013-11-27 18:00:00,
2013-11-27 12:43:00,45.0,29.0,-100.00,North,358,11.0,-999.0,53,0.00,,,-99.99,,2013-11-27 18:43:00,
2013-11-27 12:52:00,45.0,29.0,-100.00,North,358,11.0,-999.0,53,0.00,,,-99.99,,2013-11-27 18:52:00,
2013-11-27 13:00:00,47.0,26.0,-100.00,NNW,332,9.0,-999.0,44,0.00,,,-99.99,,2013-11-27 19:00:00,
2013-11-27 13:42:00,47.0,26.0,-100.00,NNW,332,9.0,-999.0,44,0.00,,,-99.99,,2013-11-27 19:42:00,
2013-11-27 13:52:00,47.0,26.0,-100.00,NNW,332,9.0,-999.0,44,0.00,,,-99.99,,2013-11-27 19:52:00,
2013-11-27 14:00:00,49.0,26.0,-100.00,NNW,339,6.0,-999.0,41,0.00,,,-99.99,,2013-11-27 20:00:00,
2013-11-27 14:42:00,49.0,26.0,-100.00,NNW,339,6.0,-999.0,41,0.00,,,-99.99,,2013-11-27 20:42:00,
2013-11-27 14:52:00,49.0,26.0,-100.00,NNW,339,6.0,-999.0,41,0.00,,,-99.99,,2013-11-27 20:52:00,
2013-11-27 15:00:00,51.0,24.0,-100.00,WNW,288,1.0,-999.0,35,0.00,,,-99.99,,2013-11-27 21:00:00,
2013-11-27 15:43:00,51.0,24.0,-100.00,WNW,288,1.0,-999.0,35,0.00,,,-99.99,,2013-11-27 21:43:00,
2013-11-27 15:53:00,51.0,24.0,-100.00,WNW,288,1.0,-999.0,35,0.00,,,-99.99,,2013-11-27 21:53:00,
2013-11-27 16:00:00,52.0,25.0,-100.00,North,6,6.0,-999.0,35,0.00,,,-99.99,,2013-11-27 22:00:00,
2013-11-27 16:43:00,52.0,25.0,-100.00,North,6,6.0,-999.0,35,0.00,,,-99.99,,2013-11-27 22:43:00,
2013-11-27 16:52:00,52.0,25.0,-100.00,North,6,6.0,-999.0,35,0.00,,,-99.99,,2013-11-27 22:52:00,
2013-11-27 17:00:00,52.0,27.0,-100.00,North,5,9.0,-999.0,38,0.00,,,-99.99,,2013-11-27 23:00:00,
2013-11-27 17:22:00,52.0,27.0,-100.00,North,5,9.0,-999.0,38,0.00,,,-99.99,,2013-11-27 23:22:00,
2013-11-27 17:33:00,52.0,27.0,-100.00,North,5,9.0,-999.0,38,0.00,,,-99.99,,2013-11-27 23:33:00,
2013-11-27 17:42:00,52.0,27.0,-100.00,North,5,9.0,-999.0,38,0.00,,,-99.99,,2013-11-27 23:42:00,
2013-11-27 17:53:00,52.0,27.0,-100.00,North,5,9.0,-999.0,38,0.00,,,-99.99,,2013-11-27 23:53:00,
2013-11-27 18:00:00,51.0,31.0,-100.00,North,354,9.0,-999.0,47,0.00,,,-99.99,,2013-11-28 00:00:00,
2013-11-27 18:42:00,51.0,31.0,-100.00,North,354,9.0,-999.0,47,0.00,,,-99.99,,2013-11-28 00:42:00,
2013-11-27 18:52:00,51.0,31.0,-100.00,North,354,9.0,-999.0,47,0.00,,,-99.99,,2013-11-28 00:52:00,
2013-11-27 19:22:00,49.0,33.0,-100.00,North,6,6.0,-999.0,53,0.00,,,-99.99,,2013-11-28 01:22:00,
2013-11-27 19:32:00,49.0,33.0,-100.00,North,6,6.0,-999.0,53,0.00,,,-99.99,,2013-11-28 01:32:00,
2013-11-27 19:42:00,49.0,33.0,-100.00,North,6,6.0,-999.0,53,0.00,,,-99.99,,2013-11-28 01:42:00,
2013-11-27 20:00:00,47.0,36.0,-100.00,NNE,32,5.0,-999.0,65,0.00,,,-99.99,,2013-11-28 02:00:00,
2013-11-27 20:21:00,47.0,36.0,-100.00,NNE,32,5.0,-999.0,65,0.00,,,-99.99,,2013-11-28 02:21:00,
2013-11-27 20:32:00,47.0,36.0,-100.00,NNE,32,5.0,-999.0,65,0.00,,,-99.99,,2013-11-28 02:32:00,
2013-11-27 20:41:00,47.0,36.0,-100.00,NNE,32,5.0,-999.0,65,0.00,,,-99.99,,2013-11-28 02:41:00,
2013-11-27 20:52:00,47.0,36.0,-100.00,NNE,32,5.0,-999.0,65,0.00,,,-99.99,,2013-11-28 02:52:00,
2013-11-27 21:44:00,46.0,33.0,-100.00,NNE,28,4.0,-999.0,62,0.00,,,-99.99,,2013-11-28 03:44:00,
2013-11-27 23:00:00,43.0,33.0,-100.00,NNE,26,8.0,-999.0,69,0.00,,,-99.99,,2013-11-28 05:00:00,
2013-11-27 23:43:00,43.0,33.0,-100.00,NNE,26,8.0,-999.0,69,0.00,,,-99.99,,2013-11-28 05:43:00,
2013-11-27 23:53:00,43.0,33.0,-100.00,NNE,26,8.0,-999.0,69,0.00,,,-99.99,,2013-11-28 05:53:00,